Back to catalog

OPS 2366

TRANSIT 14

AliveNavigationPO
NORAD 2401·PAYLOAD·🇺🇸 United States

Launched Aug 18, 1966 from Vandenberg Space Force Base

Loading…

Next Passes (next 24 hours)

TLE

FreshSource: Space-Track

Epoch: Sep 14, 2026, 08:36 UTC

1 02401U 66076A   26257.35848161  .00000081  00000-0  10136-3 0  9993
2 02401  88.8454  55.3414 0033895  48.5129 330.4139 13.53970196963167

Track OPS 2366 in real time with AllMySat

Download on the App Store